Vertical_Velocity
-1 -3 -3 -0 1 -2 -1 -5 -3 -1 1 0 -2 -1 1 -0 -2 -2 -2 1 -1 1 0 -1 -0 -2 -2 -1 0 0 -5 11 0 17 -5 3 0 4 -3 3 1 -6 -0 7 17 -0 6
-3 0 -2 -4 -2 -0 -4 -3 -1 -2 -0 -2 -2 -1 -3 1 -5 -5 -5 -1 0 1 0 -1 -1 -2 -3 -1 -4 -2 14 6 -2 2 5 -5 1 3 6 5 -7 8 5 6 -4 0 5
-1 1 -1 -4 -1 4 -1 2 -3 -2 -0 -2 -5 4 -3 -6 -3 -3 -4 -2 -2 2 1 -0 -1 -2 -3 -8 -2 12 3 1 3 -1 4 6 7 2 4 9 11 8 2 -6 2 5 -1
-1 -1 -1 -2 -2 -2 -1 1 -4 -5 -3 -3 -4 3 -2 -1 -3 0 -4 -4 -2 -3 -2 -0 -3 -4 -2 0 -2 17 3 7 3 -11 3 7 2 5 2 1 5 1 -5 -10 13 -0 -1
-3 -2 -0 -2 -1 -4 3 -2 -4 -4 -4 0 -2 2 -4 -4 -6 3 -1 -5 -6 -0 -2 -2 -1 -0 -0 -3 2 -9 -1 1 -2 -3 1 5 -6 1 -3 -3 -0 -4 -15 -5 0 -5 3
-2 -3 -1 -3 -2 -4 1 -2 -1 -0 -2 -4 1 3 -1 -4 -2 -6 -4 1 -2 -2 -1 -0 -2 -1 2 1 2 6 7 3 1 -1 55 3 -1 -4 -8 -15 -33 -13 -16 -10 4 1 4
-1 -4 -1 -1 0 -1 -3 0 -1 -4 -4 -4 0 0 -9 -1 0 -4 -1 -7 0 2 -3 -7 2 1 4 3 -5 4 11 5 14 33 21 7 -18 -16 18 5 -5 9 5 5 5 -2 -7
-1 0 -2 -0 0 -3 -1 2 1 -2 1 -5 4 1 1 -5 -2 -0 -2 -3 -4 -5 -8 -1 2 1 -0 -4 -1 -2 2 6 41 37 0 -4 4 -1 5 6 9 -3 -3 -3 -2 -6 -3
-2 -3 -3 -1 0 -2 -0 3 1 -0 2 -3 -3 1 -4 -5 -5 -3 0 5 -2 4 -1 1 1 -1 5 0 6 0 4 2 -2 -4 -6 6 7 0 3 -2 -3 -3 -1 -0 5 2 -5
-3 -4 -2 -3 -0 -0 -0 4 2 -2 -3 -5 1 -1 -1 -2 0 -5 6 -2 9 0 -6 -5 -3 1 -7 0 18 6 19 -5 -7 -5 3 1 9 3 2 2 0 -1 -2 0 1 -0 -4
-2 -2 -3 -2 -3 -1 -1 2 1 5 -1 -0 -1 1 -1 -2 -2 -4 -1 4 -1 -5 -11 1 0 -3 -6 2 15 3 25 19 3 -2 2 -1 -4 -3 -1 4 2 2 -4 -1 2 -3 -2
-2 -3 -2 -3 -3 -4 -0 0 2 1 0 0 -2 4 -4 -0 -5 -0 -3 5 -1 -10 -6 -3 -9 -2 3 9 -3 -0 7 21 30 7 0 3 0 -1 3 -4 -0 -4 -2 1 -0 -4 -13
-2 -2 -1 -1 -1 -6 -2 -1 1 2 4 -4 -3 -2 -3 -8 -2 -4 3 4 1 -12 -3 6 -6 -8 -14 1 6 5 -8 -8 -16 -14 -4 -3 2 2 -4 -2 0 -5 -3 -3 -4 -12 -3
-1 -2 -2 -1 2 -3 -4 2 -3 4 4 -3 0 -3 -7 -6 1 0 -1 -4 3 -1 -3 2 -3 4 -8 -2 -14 -4 3 0 1 0 4 3 -9 -5 -2 2 7 2 -4 1 -2 -3 9
-3 -1 -2 -2 -2 -4 0 -2 0 5 9 -1 1 1 -2 -10 -4 3 -1 -3 -4 -3 0 -0 5 3 -7 -2 8 -4 -6 -2 -3 2 3 5 -2 2 -2 -2 -2 2 -8 0 -2 -1 -6
-2 -3 -2 -3 -3 -4 -2 2 -5 5 3 4 -0 4 0 -2 -5 -1 6 -1 -3 -2 -1 2 -1 1 -3 -6 -6 -1 -1 -2 -2 -3 -5 -3 -2 -1 -0 -0 -2 -6 3 -2 -0 -3 -1
-2 -3 -1 -4 -3 -1 -5 -0 -1 -4 7 4 1 2 -2 -3 -2 -1 2 -0 1 -0 0 -4 -1 2 -2 -3 -0 -2 -1 0 -3 -4 -0 2 2 3 -2 -2 -1 -5 -2 -1 2 -5 -3
-2 -4 -4 -2 -3 0 -2 -3 3 0 -3 1 -5 -1 -0 -6 -4 -1 -2 5 -3 -2 -0 -2 -2 -0 1 -1 0 0 -0 0 1 2 0 3 0 -4 -2 1 -5 -5 -2 -4 -5 0 -3
-2 -5 -3 -4 -2 -4 -5 -2 -1 3 3 10 7 -2 -3 -4 -6 -9 -3 0 3 -2 -2 -0 -2 -2 -1 1 -2 -2 -2 0 -1 -1 -1 0 -1 -2 -1 -0 -1 -3 2 0 -1 -3 -2
-2 -3 -3 -4 -3 -3 -5 -3 -2 -3 -2 5 -0 4 -3 2 1 -1 -3 -1 2 2 0 -0 -1 0 -1 -1 -2 -0 -1 -0 0 0 0 0 2 1 -1 -1 -1 1 -1 -2 -5 -8 6
1 -0 -3 -3 -3 -2 -5 -6 -2 -4 -2 4 -0 4 -5 -3 -2 1 -4 4 -2 2 -0 -2 -2 -0 0 -0 0 -0 1 -1 -1 -1 -1 -1 -1 -2 -2 -1 -2 -2 -1 -2 -3 4 -10
1 -1 -5 -3 -5 -3 -3 -1 -9 -5 2 2 7 6 4 -2 -3 3 0 5 2 -0 3 1 -2 -1 1 3 -1 1 0 -1 0 -1 -1 -0 -0 1 1 0 -1 -1 -1 0 -4 -3 0
-0 -1 -4 -3 -4 -3 -3 -4 -5 -3 0 1 4 6 2 -1 3 7 12 3 9 2 0 1 2 -2 -1 4 1 1 1 -1 -1 -0 -0 -1 -1 -0 1 -2 -3 -2 -2 -4 -2 -1 -3
-1 -1 -3 -6 -5 -4 -1 -3 -7 -1 -0 0 -3 1 5 -1 -3 6 -3 -2 -0 1 2 1 3 -3 -1 -1 4 1 -2 0 -1 -1 -2 0 -1 -4 -2 -3 -7 2 -0 -3 -6 -6 -2
-2 -0 -2 -5 -7 -6 -5 -7 -6 -4 -3 -4 0 -1 2 -2 -2 -6 0 5 -3 4 0 -3 1 3 -2 -4 -0 2 2 1 4 -1 0 -1 -0 1 -4 -1 3 1 -2 -1 -1 -0 -2
-0 0 -4 -3 -5 -7 -5 -8 -6 -7 -8 -3 2 1 1 3 1 -1 -2 0 2 1 -1 -1 -0 0 2 -1 -2 1 0 1 -0 -0 1 -1 -1 -1 1 -1 1 0 0 -1 -1 3 3
-0 -1 -3 -3 -4 -4 -8 -7 -6 -8 -9 -10 -5 1 -5 -2 1 2 3 -19 -2 -5 5 5 3 3 0 2 0 -1 2 0 -1 0 -1 0 -0 -1 -3 -3 4 1 2 -1 -1 1 -1
-0 -4 -2 -2 -5 -6 -11 -9 -7 -7 -10 -8 -3 -2 -4 2 1 -4 -7 4 -3 1 -1 3 -2 1 1 -1 0 1 -1 0 0 2 1 -1 -0 1 -1 -1 0 1 2 0 -1 -0 0
-0 -4 -1 -0 -1 -3 -9 -10 -11 -8 -11 -12 -12 2 -6 -11 -2 7 4 2 3 -1 2 1 4 -3 1 -3 -1 -1 3 0 -0 -0 2 2 -1 1 -2 1 1 1 1 0 1 1 2
Height
5803 5792 5781 5766 5753 5739 5725 5712 5698 5684 5670 5658 5649 5637 5624 5607 5587 5564 5549 5545 5546 5546 5545 5546 5547 5548 5550 5555 5562 5573 5593 5610 5622 5639 5652 5665 5677 5688 5698 5708 5717 5724 5735 5741 5748 5756 5766
5800 5790 5777 5765 5750 5736 5723 5707 5694 5681 5667 5655 5645 5633 5618 5601 5579 5558 5547 5544 5542 5541 5541 5542 5541 5542 5543 5548 5550 5564 5581 5599 5616 5634 5646 5659 5674 5684 5692 5702 5711 5722 5725 5729 5739 5750 5753
5797 5788 5775 5762 5748 5732 5719 5704 5691 5679 5665 5654 5643 5632 5618 5599 5579 5559 5549 5544 5541 5538 5536 5536 5535 5536 5537 5539 5548 5563 5575 5595 5612 5630 5644 5656 5666 5678 5688 5695 5703 5712 5713 5721 5736 5744 5751
5795 5785 5773 5760 5745 5730 5717 5703 5691 5677 5664 5652 5642 5631 5617 5602 5584 5566 5555 5549 5543 5537 5534 5533 5532 5531 5533 5539 5548 5557 5569 5590 5607 5625 5640 5651 5662 5671 5681 5689 5694 5704 5707 5717 5731 5736 5743
5792 5782 5772 5759 5744 5729 5716 5702 5688 5676 5663 5651 5642 5631 5619 5607 5590 5573 5560 5552 5547 5542 5537 5534 5532 5532 5535 5539 5546 5556 5567 5586 5607 5626 5639 5648 5657 5668 5676 5685 5691 5697 5706 5719 5725 5733 5740
5789 5779 5770 5758 5743 5729 5714 5702 5688 5676 5664 5653 5643 5633 5623 5612 5599 5584 5569 5558 5549 5545 5541 5538 5536 5537 5538 5542 5550 5560 5572 5592 5611 5626 5639 5645 5653 5664 5673 5682 5691 5702 5709 5716 5726 5732 5736
5786 5777 5768 5757 5742 5730 5714 5702 5687 5676 5664 5655 5646 5636 5627 5617 5606 5594 5581 5568 5558 5551 5546 5542 5540 5540 5541 5549 5556 5563 5575 5594 5613 5624 5634 5641 5652 5666 5675 5683 5691 5699 5704 5709 5719 5725 5730
5783 5775 5766 5756 5743 5730 5715 5701 5687 5676 5664 5655 5648 5640 5631 5623 5612 5603 5593 5583 5570 5560 5556 5552 5549 5548 5550 5555 5560 5569 5580 5597 5608 5622 5634 5645 5654 5664 5672 5681 5688 5694 5700 5705 5712 5716 5721
5781 5773 5765 5755 5744 5730 5716 5702 5690 5678 5667 5658 5652 5644 5636 5629 5619 5610 5602 5594 5586 5575 5568 5562 5557 5557 5557 5561 5570 5582 5594 5604 5613 5624 5637 5646 5656 5662 5669 5678 5685 5692 5698 5702 5708 5712 5717
5779 5771 5763 5755 5743 5731 5717 5703 5690 5678 5669 5659 5654 5647 5641 5634 5627 5618 5611 5604 5595 5592 5585 5580 5575 5573 5571 5573 5586 5592 5605 5611 5619 5630 5638 5645 5655 5663 5668 5676 5683 5689 5694 5699 5702 5707 5714
5775 5768 5761 5752 5743 5731 5717 5704 5691 5679 5669 5662 5658 5650 5644 5639 5633 5625 5619 5612 5606 5599 5595 5593 5590 5590 5587 5593 5597 5600 5606 5614 5624 5631 5641 5649 5655 5662 5669 5676 5680 5685 5691 5696 5699 5702 5706
5772 5765 5759 5751 5742 5731 5718 5705 5693 5680 5670 5664 5658 5654 5647 5645 5638 5633 5628 5622 5617 5608 5603 5604 5603 5604 5605 5603 5606 5608 5611 5620 5627 5636 5643 5651 5656 5662 5667 5672 5677 5682 5687 5690 5692 5696 5700
5768 5763 5756 5748 5739 5730 5718 5705 5694 5681 5671 5664 5659 5654 5650 5647 5641 5638 5636 5632 5628 5619 5617 5617 5615 5615 5615 5617 5619 5617 5620 5626 5633 5638 5646 5651 5657 5663 5666 5671 5676 5680 5683 5686 5689 5690 5696
5765 5759 5753 5745 5737 5729 5717 5705 5694 5680 5670 5664 5658 5654 5652 5647 5644 5641 5641 5639 5635 5629 5624 5624 5623 5622 5624 5623 5625 5625 5627 5634 5638 5643 5648 5652 5657 5661 5666 5671 5676 5678 5680 5683 5684 5686 5692
5761 5755 5749 5743 5736 5728 5717 5705 5694 5681 5670 5662 5655 5652 5650 5648 5645 5641 5643 5642 5638 5634 5632 5631 5630 5627 5625 5627 5630 5632 5636 5639 5642 5645 5650 5653 5658 5661 5665 5669 5672 5674 5676 5681 5682 5682 5685
5756 5751 5745 5740 5734 5726 5717 5705 5694 5680 5670 5662 5655 5649 5648 5647 5644 5642 5641 5642 5640 5638 5635 5635 5635 5633 5630 5629 5632 5634 5637 5639 5641 5645 5649 5653 5656 5659 5662 5665 5667 5671 5674 5677 5678 5678 5679
5751 5747 5741 5737 5731 5724 5716 5704 5692 5681 5671 5659 5652 5646 5644 5642 5641 5640 5639 5639 5639 5639 5637 5637 5637 5636 5635 5634 5634 5635 5636 5639 5641 5643 5646 5650 5654 5657 5658 5661 5664 5667 5670 5672 5673 5673 5673
5747 5742 5737 5732 5728 5721 5713 5703 5692 5680 5669 5658 5650 5645 5640 5639 5638 5636 5635 5635 5636 5637 5637 5637 5638 5637 5637 5637 5637 5637 5637 5639 5641 5643 5646 5650 5653 5654 5657 5660 5662 5664 5666 5667 5666 5669 5669
5742 5737 5732 5728 5723 5718 5710 5702 5692 5681 5669 5656 5648 5641 5636 5634 5631 5631 5631 5630 5631 5633 5634 5636 5637 5637 5637 5638 5638 5638 5638 5639 5640 5643 5646 5649 5651 5651 5653 5657 5658 5660 5663 5663 5664 5664 5664
5735 5732 5728 5723 5718 5713 5707 5700 5689 5680 5668 5656 5646 5638 5632 5629 5628 5627 5627 5627 5626 5628 5629 5631 5634 5635 5636 5637 5637 5638 5639 5639 5640 5641 5643 5645 5646 5648 5650 5651 5653 5656 5658 5659 5660 5660 5663
5728 5725 5722 5717 5712 5708 5704 5696 5688 5678 5666 5654 5642 5633 5626 5624 5621 5620 5620 5622 5623 5623 5624 5626 5628 5631 5633 5635 5635 5636 5637 5638 5639 5640 5640 5642 5644 5645 5646 5648 5649 5651 5653 5654 5656 5659 5656
5721 5718 5716 5711 5707 5704 5699 5693 5686 5676 5664 5652 5640 5631 5622 5619 5616 5615 5615 5615 5618 5619 5620 5622 5624 5626 5628 5631 5633 5633 5633 5634 5636 5637 5637 5638 5640 5641 5642 5644 5645 5646 5648 5650 5652 5653 5655
5713 5711 5708 5705 5701 5698 5694 5689 5682 5674 5662 5650 5637 5627 5619 5616 5612 5611 5610 5611 5613 5615 5616 5617 5619 5621 5623 5625 5627 5629 5630 5630 5631 5633 5633 5635 5636 5637 5639 5639 5639 5641 5643 5644 5647 5648 5650
5706 5703 5700 5697 5694 5693 5688 5684 5680 5671 5659 5647 5635 5625 5617 5612 5609 5606 5605 5605 5606 5607 5610 5612 5614 5615 5618 5619 5622 5623 5625 5626 5627 5628 5629 5630 5631 5633 5634 5634 5634 5638 5639 5639 5641 5642 5643
5698 5696 5692 5688 5687 5686 5682 5678 5674 5667 5656 5645 5633 5623 5614 5609 5606 5603 5601 5597 5599 5599 5602 5605 5608 5611 5612 5615 5617 5619 5620 5622 5622 5623 5624 5625 5626 5628 5628 5629 5632 5633 5633 5634 5635 5638 5639
5690 5687 5684 5681 5680 5678 5675 5672 5666 5662 5652 5642 5631 5619 5610 5603 5599 5597 5593 5591 5590 5591 5594 5598 5602 5605 5608 5610 5612 5614 5616 5617 5618 5619 5620 5620 5621 5624 5624 5625 5627 5628 5629 5630 5631 5633 5634
5681 5679 5676 5675 5672 5669 5666 5664 5659 5653 5647 5640 5627 5614 5604 5597 5593 5588 5583 5583 5581 5583 5585 5590 5594 5598 5601 5605 5607 5610 5612 5614 5615 5615 5615 5616 5616 5618 5619 5620 5623 5623 5623 5625 5628 5631 5629
5673 5673 5670 5667 5663 5659 5657 5656 5652 5646 5641 5636 5622 5607 5599 5587 5584 5582 5575 5572 5572 5574 5577 5581 5586 5590 5595 5598 5602 5604 5607 5609 5611 5611 5612 5613 5613 5614 5614 5615 5618 5618 5619 5621 5622 5624 5625
5665 5665 5663 5660 5657 5652 5648 5647 5643 5641 5634 5627 5617 5602 5592 5583 5576 5572 5568 5563 5562 5566 5570 5574 5578 5582 5586 5591 5595 5598 5601 5603 5604 5606 5606 5608 5610 5610 5612 5612 5612 5613 5614 5615 5617 5619 5621